Zurück zum Katalog

STARLINK-37553

AktivKommunikationVLEO
NORAD 69820·PAYLOAD·🇺🇸 United States

Gestartet Jul 5, 2026 von Cape Canaveral Space Force Station

Loading…

Nächste Überflüge (nächste 24 Stunden)

TLE

AktuellSource: CelesTrak SupGP

Epoche: Sep 14, 2026, 21:26 UTC

1 69820C 26154B   26257.89354167 -.00008630  00000+0 -25500-3 0  2578
2 69820  53.1583 357.7526 0001233  79.7825 148.6744 15.34392018    15

Verfolge STARLINK-37553 in Echtzeit mit AllMySat

Download on the App Store